CAPE
0 0 0 0 0 0 0 0 0 0 0 0 0 0 0 0 0 0 0 0 0 0
0 0 0 0 0 0 0 0 0 0 0 0 0 0 0 0 0 0 0 0 8 12
0 0 0 0 0 0 0 0 0 0 0 0 0 1 1 0 0 0 0 0 1 0
0 0 0 0 0 0 0 0 0 0 0 0 0 0 4 3 4 5 0 2 9 0
0 0 0 0 0 0 0 0 0 0 0 0 0 0 0 0 0 1 0 13 8 7
0 0 0 0 0 0 0 0 0 0 1 0 0 0 0 0 5 0 4 13 3 8
0 0 0 0 0 0 1 1 0 8 5 1 1 0 0 3 1 4 2 15 9 6
0 0 0 0 1 1 10 3 4 4 2 9 12 4 0 0 8 4 2 2 12 2
0 0 0 3 4 1 1 3 7 4 2 12 18 9 16 15 3 7 2 2 10 1
1 2 4 6 7 9 4 5 2 10 18 5 18 21 34 23 13 15 19 17 20 9
2 3 6 7 3 2 8 10 15 15 9 2 8 20 14 15 12 13 12 15 13 19
4 2 7 1 1 2 4 7 13 11 1 1 4 15 7 16 8 8 3 6 10 10
3 2 4 1 1 2 7 3 3 7 0 1 6 6 11 11 9 8 9 11 2 9
1 1 0 0 0 1 1 1 4 3 0 0 0 0 9 19 10 11 7 5 2 0
CIN
0 0 0 0 0 0 0 0 0 0 0 0 0 0 0 0 0 0 0 0 0 0
0 0 0 0 0 0 0 0 0 0 0 0 0 0 0 0 0 0 0 0 -6 -7
0 0 0 0 0 0 0 0 0 0 0 0 0 -2 -3 0 0 0 0 0 -5 0
0 0 0 0 0 0 0 0 0 0 0 0 0 0 -2 -1 -2 -3 0 -7 -3 0
0 0 0 0 0 0 0 0 0 0 0 0 0 0 0 0 -12 -5 0 -2 -2 -6
0 0 0 0 0 0 0 0 0 -3 -8 -2 0 0 0 0 0 -6 -1 -3 -10 -12
0 0 0 0 0 -1 -3 -4 0 -1 -1 -2 -1 0 0 -1 0 0 -7 -5 -8 -14
0 0 0 0 -2 -5 -1 -2 -1 -4 -4 -1 0 0 0 -1 0 -1 -1 -3 -9 -44
0 0 0 -2 -3 -1 -3 -2 0 -2 -3 0 0 -4 -2 -1 -2 -1 -2 0 -12 -12
-1 -2 -3 -3 -1 -1 -2 -1 -2 0 0 -2 0 0 0 -1 -2 -4 -3 -6 -7 -15
-3 -2 -1 -1 0 -2 -1 -1 0 0 0 -2 -1 0 -1 -4 0 -2 -2 -2 -1 -4
-1 -1 -1 -2 -2 -1 -2 0 0 0 0 0 0 -1 -2 -2 -1 0 -2 0 0 0
-4 -2 0 -1 0 0 0 0 0 0 0 -3 -2 -8 -2 -3 -3 0 -1 -6 -7 -2
-7 -3 -3 0 -1 0 0 0 0 0 0 0 0 0 -2 -2 -1 -3 -2 -2 -2 0
Wind_Speed
41 43 44 45 46 46 45 44 42 43 40 40 39 40 40 41 40 38 38 39 38 39
43 44 45 45 44 44 43 44 43 43 44 43 43 40 41 40 39 39 40 39 36 35
44 44 44 45 45 45 45 44 45 46 46 45 42 41 40 40 41 39 41 41 39 39
44 44 44 44 43 44 44 45 45 45 46 46 46 44 41 40 37 37 40 38 34 35
45 44 44 44 44 43 45 46 47 47 46 47 47 45 44 43 43 40 40 37 32 33
44 45 45 45 46 47 48 51 50 47 47 47 46 45 44 44 42 41 40 36 36 34
47 47 46 46 48 48 47 46 46 44 45 46 46 46 45 44 43 42 43 39 36 40
44 46 49 47 45 45 42 44 42 44 47 45 42 39 40 40 41 42 41 41 36 38
47 47 47 45 42 41 41 42 42 43 39 38 36 29 25 31 37 35 36 41 39 39
45 46 47 43 41 42 40 39 37 34 33 32 33 32 26 21 37 36 36 35 35 35
45 46 45 43 40 39 33 33 30 26 24 22 20 17 17 23 35 34 34 35 34 33
45 48 42 39 36 31 29 27 24 20 18 16 14 15 18 19 16 31 32 33 34 37
45 42 35 30 25 24 23 22 20 18 16 13 11 10 11 15 12 10 32 33 35 38
39 33 28 23 23 23 23 23 20 17 15 12 9 7 9 13 9 9 17 25 30 33
Wind_Direction
328 327 325 324 323 322 321 320 319 316 313 311 308 305 302 300 299 299 297 294 290 288
328 326 325 325 324 323 322 321 320 318 315 311 308 303 301 301 299 296 295 294 289 287
328 327 326 326 324 323 322 321 319 317 315 313 309 306 303 300 297 294 292 288 285 285
328 328 327 325 325 324 322 320 318 317 315 313 310 308 304 300 295 293 292 289 281 281
328 328 327 326 324 324 324 324 321 318 314 312 309 306 302 299 295 294 290 289 282 277
329 328 327 326 325 325 323 321 319 315 313 312 309 305 300 296 294 290 288 286 284 282
330 328 329 327 326 324 323 321 319 316 314 312 308 304 299 296 291 289 286 283 279 280
330 330 329 328 327 326 325 324 320 318 315 313 311 308 303 298 292 288 285 280 277 273
331 330 330 329 329 328 328 327 324 322 318 317 315 307 297 300 298 290 283 277 276 272
333 331 332 331 330 330 330 330 327 324 322 318 318 314 304 270 297 290 284 279 276 273
334 333 332 334 332 332 332 331 330 325 321 318 303 302 286 302 296 290 284 277 274 271
336 335 335 335 335 332 329 329 327 323 321 308 300 268 256 244 307 293 283 276 269 262
337 338 338 335 323 324 328 321 321 316 322 313 294 283 257 238 228 222 272 264 262 253
341 341 338 313 324 326 323 324 323 323 325 312 297 287 253 231 216 203 289 277 268 257